User: anonymous   Login
Location: Observatoire
(46.1952°N, 5.3391°E)
Time: 06:18:04
(UTC+02:00)
Language:

First-Move - Orbit

View from above orbital plane
View from above orbital plane
View from above satellite
View from above satellite

Ground track
Ground track

The orbit data is extracted from the following two-line orbital elements,

1 39439U 13066Z   24106.86237076  .00025195  00000-0  21070-2 0  9990
2 39439  97.7199  70.9931 0048248 348.8742  11.1409 14.97548919562638
Epoch (UTC): 15 April 2024 20:41:48
Eccentricity: 0.0048248
inclination: 97.7199°
perigee height: 541 km
apogee height: 608 km
right ascension of ascending node: 70.9931°
argument of perigee: 348.8742°
revolutions per day: 14.97548919
mean anomaly at epoch: 11.1409°
orbit number at epoch: 56263

The dashed part of the orbit path shows where the satellite is in the earth's shadow,  

DLR